User: anonymous   Login
Location: Caltech
(34.1382°N, 118.1253°W)
Time: 12:37:59
(UTC-08:00)
Language:

Cosmos 1733 Rocket - Orbit

View from above orbital plane
View from above orbital plane
View from above satellite
View from above satellite

Ground track
Ground track

The orbit data is extracted from the following two-line orbital elements,

1 16612U 86018B   17326.94536411 +.00000112 +00000-0 +10496-4 0  9999
2 16612 082.5147 147.4868 0017491 354.2058 117.0936 14.84174076593907
Epoch (UTC): 22 November 2017 22:41:19
Eccentricity: 0.0017491
inclination: 82.5147°
perigee height: 604 km
apogee height: 628 km
right ascension of ascending node: 147.4868°
argument of perigee: 354.2058°
revolutions per day: 14.84174076
mean anomaly at epoch: 117.0936°
orbit number at epoch: 59390

The dashed part of the orbit path shows where the satellite is in the earth's shadow,  

DLR